Theta_e
321 320 320 319 322 321 321 324 324 323 323 322 323 323 323 323 324 325 323 321 321 320 319 318 317 317 317 317 316 314 313 313 311 309 307 304 300 298 296 295 294 293 292 291
322 320 319 318 318 318 318 320 321 320 320 320 321 321 322 321 323 324 323 321 319 319 317 316 315 315 314 314 313 312 312 311 308 305 302 300 297 295 294 294 293 292 291 290
324 320 319 323 318 318 318 318 319 321 320 320 320 320 322 322 323 324 323 320 318 317 315 314 313 313 312 312 311 311 310 307 304 302 299 297 295 294 294 293 292 291 290 290
326 322 328 321 319 318 320 319 319 319 319 320 320 321 322 322 323 323 322 320 317 315 314 313 312 311 311 310 310 309 306 304 301 298 296 295 294 294 293 293 292 291 290 289
327 324 321 320 318 318 318 319 319 319 319 320 320 321 322 321 322 323 323 320 316 314 313 312 310 310 309 308 307 306 303 300 298 296 295 295 294 293 292 292 291 290 289 288
321 321 321 319 318 317 319 320 322 322 324 320 320 321 319 321 322 322 321 319 316 314 312 311 310 308 308 307 305 303 301 298 297 296 295 294 293 292 291 291 290 289 288 287
321 320 318 317 320 318 319 322 321 320 322 325 325 323 324 322 322 321 320 317 315 313 311 310 308 307 307 306 304 302 299 297 296 294 293 292 292 291 290 290 289 288 287 287
320 322 322 318 319 322 321 319 319 317 318 320 320 322 322 321 321 321 320 316 313 311 310 309 307 307 306 305 302 299 297 295 294 293 292 291 290 289 289 289 289 288 287 287
318 318 318 319 319 318 318 318 317 317 316 316 318 321 320 320 320 320 317 314 312 310 309 307 307 306 305 304 300 297 295 294 293 291 290 290 290 289 289 289 289 288 288 287
315 314 315 317 315 316 316 316 315 316 315 315 316 317 319 319 319 318 316 313 310 310 308 307 306 306 305 301 298 296 294 293 292 290 290 289 289 289 289 288 288 288 287 287
312 311 311 311 311 314 314 313 314 313 313 315 315 315 317 318 317 316 314 311 310 309 307 306 306 305 303 299 296 295 294 292 291 290 290 289 289 288 288 288 288 288 287 287
310 309 309 310 311 311 310 312 312 312 310 311 314 314 315 316 316 315 313 311 310 309 307 306 305 304 299 297 296 294 293 292 291 290 290 289 288 286 285 284 285 284 284 284
305 306 306 306 307 308 310 310 311 310 307 308 312 313 312 314 315 314 312 311 310 308 306 305 304 301 298 296 295 294 293 292 290 290 290 289 288 287 285 282 281 281 280 280
303 303 303 304 305 305 304 304 305 305 306 306 311 313 311 311 312 312 311 310 309 308 306 304 302 299 297 295 294 293 292 291 290 290 289 288 288 287 287 285 283 282 279 279
302 302 302 303 303 303 303 303 304 305 307 308 312 313 311 310 311 311 310 309 308 307 305 303 301 298 295 294 293 292 291 290 289 289 288 288 287 287 286 286 286 285 282 279
302 302 303 303 303 303 304 305 305 306 307 309 312 312 309 309 309 309 308 308 307 306 304 301 298 296 294 293 292 291 290 289 289 288 287 286 286 286 286 285 285 284 284 283
304 304 303 303 303 303 303 304 304 305 306 308 311 310 309 307 307 306 306 306 305 305 302 299 297 294 293 292 291 290 289 287 287 287 285 285 285 285 285 284 284 284 283 281
301 300 302 303 304 304 304 304 305 304 306 308 308 308 308 306 306 305 304 304 303 302 300 298 295 293 292 291 290 289 287 285 285 285 285 285 285 284 284 284 283 282 281 278
299 299 297 298 300 301 302 304 305 306 306 305 305 307 306 303 301 303 302 301 299 299 299 296 294 291 290 290 289 287 285 284 284 284 284 284 283 283 283 282 281 281 280 279
300 298 298 298 298 298 300 302 302 304 305 305 304 304 305 300 300 300 299 298 297 297 297 294 291 290 290 288 286 285 285 284 284 284 283 283 283 282 282 281 280 280 278 278
298 298 298 298 298 298 298 300 301 301 302 303 302 303 299 299 297 297 296 297 295 295 295 291 290 289 287 285 285 284 284 284 284 283 282 282 282 281 280 279 278 278 278 277
298 297 297 297 297 297 296 298 298 297 294 294 295 297 297 294 293 293 294 295 294 294 291 288 289 287 285 284 284 283 283 283 283 282 282 282 281 280 279 278 278 278 277 276
297 297 296 297 296 297 296 294 295 294 293 293 293 295 295 296 293 291 291 291 291 289 287 288 287 284 283 284 283 283 283 283 282 282 282 281 280 280 279 278 278 277 276 275
297 297 297 296 296 296 298 299 297 295 295 295 294 294 295 294 292 292 292 291 290 288 287 287 284 282 283 283 283 283 282 282 282 281 281 280 280 279 278 277 277 276 275 274
297 297 297 297 298 299 298 298 297 297 296 296 296 294 294 292 291 289 291 288 287 286 286 284 282 283 283 283 283 282 282 281 281 280 280 279 279 278 277 276 275 275 274 273
297 298 298 297 298 298 298 298 298 297 295 295 295 293 293 292 289 287 287 286 285 284 283 282 282 283 283 282 282 281 281 280 280 279 279 278 278 277 276 275 274 273 273 272
298 298 298 299 298 298 298 298 296 296 294 293 292 290 288 287 286 285 284 284 283 282 282 282 282 282 282 281 281 281 280 279 279 278 278 277 276 276 275 274 273 272 272 271
Wind_Speed
14 18 17 17 15 17 19 18 18 17 19 16 14 13 8 8 10 13 13 13 13 13 14 16 16 17 18 20 22 25 26 24 23 23 22 21 20 18 16 14 12 11 10 8
13 14 17 21 21 19 18 19 21 21 21 17 16 13 6 7 11 14 14 15 14 14 17 18 19 20 21 22 25 26 25 24 23 23 23 21 20 18 17 14 12 11 9 8
14 14 17 19 19 20 20 21 18 19 18 16 18 14 8 10 11 15 15 15 16 16 19 20 21 22 22 24 25 25 25 24 24 23 22 21 19 17 15 13 12 10 9 8
9 12 14 12 15 16 18 20 21 21 19 17 17 11 8 8 13 15 16 17 17 19 21 21 22 22 23 24 25 25 25 25 24 23 22 20 18 16 14 13 11 10 8 7
10 11 17 18 13 9 14 18 18 19 19 15 16 3 8 14 12 14 15 16 21 22 23 24 24 25 26 25 25 25 25 24 23 22 21 19 17 15 13 12 10 9 8 7
11 14 18 18 21 5 8 13 20 21 22 12 11 6 9 7 16 13 18 22 24 25 25 25 26 27 28 27 26 25 24 23 22 20 19 17 16 15 13 11 10 9 8 6
13 14 15 14 10 8 11 4 16 16 18 20 15 4 9 4 6 13 19 22 24 25 26 27 29 29 28 28 26 25 24 22 20 19 18 16 16 14 12 11 10 9 8 7
11 16 15 8 5 6 6 8 11 13 16 17 17 19 7 6 5 12 17 22 25 24 25 27 29 30 28 27 27 26 25 22 20 18 17 17 15 14 12 11 10 9 9 8
8 9 3 6 6 5 6 7 10 11 15 17 17 17 7 5 5 10 18 21 24 24 26 27 28 28 29 29 30 27 25 23 21 19 17 16 15 14 12 11 10 10 9 8
12 15 12 11 6 6 5 9 11 11 10 13 16 16 14 6 6 9 17 21 25 26 27 27 29 28 28 30 30 29 26 24 22 20 18 16 14 12 11 10 9 9 8 7
12 16 17 18 10 8 8 12 12 12 13 13 14 16 15 8 8 11 17 21 26 27 28 30 31 29 29 30 31 30 27 25 23 20 19 17 13 11 10 7 8 8 7 5
13 15 14 14 15 13 15 17 15 14 15 14 14 13 14 13 10 14 17 22 25 27 28 30 31 31 30 29 29 29 27 25 23 21 19 18 16 11 8 6 11 9 5 5
17 19 20 21 21 18 18 19 19 18 18 17 18 12 16 13 14 14 18 23 26 26 27 30 30 30 31 31 29 27 24 24 23 21 20 18 17 14 11 5 6 7 7 7
15 16 18 20 17 19 22 26 27 28 25 20 22 13 13 12 13 15 20 23 25 26 28 30 30 30 31 31 29 26 23 23 22 20 19 17 16 15 13 12 10 7 8 6
18 19 21 20 22 22 27 23 22 20 18 17 20 12 13 10 13 15 19 21 25 27 29 31 31 30 31 30 29 27 24 23 20 18 17 16 14 13 12 11 11 10 13 9
19 19 20 18 19 20 20 18 20 19 19 15 16 12 14 12 13 16 18 23 26 27 31 30 31 32 32 31 29 26 24 23 20 18 17 16 14 13 12 11 10 10 10 7
19 19 18 21 20 22 22 20 20 21 20 20 15 14 12 12 11 14 19 24 26 26 28 30 31 34 34 32 31 26 23 23 21 18 17 16 14 13 12 11 10 9 8 7
10 14 18 20 20 19 20 23 30 30 24 23 20 13 15 12 12 15 18 20 22 22 28 30 33 34 35 33 30 27 25 25 22 19 17 16 14 13 11 10 10 9 8 5
10 12 15 17 17 18 19 22 31 29 28 28 21 17 18 19 21 16 18 22 23 23 28 32 35 37 36 36 31 29 27 26 22 20 18 16 15 13 12 11 9 8 8 7
10 9 9 14 15 16 20 23 24 26 25 24 22 22 18 24 23 21 23 23 27 24 27 31 40 34 33 36 32 29 29 27 24 21 19 18 16 14 12 11 10 10 8 7
13 14 13 11 17 18 20 23 19 20 22 23 20 17 18 17 25 23 19 16 26 27 28 36 37 31 33 38 31 29 29 27 25 23 21 19 17 15 13 13 11 10 9 7
13 13 16 18 17 20 21 21 21 20 19 21 23 21 15 17 22 26 29 22 23 27 33 37 34 35 38 40 33 32 29 27 24 22 21 19 18 16 15 13 12 11 9 8
16 14 17 16 10 18 23 22 18 17 18 18 18 18 19 17 22 21 11 25 23 33 35 34 34 41 45 34 38 34 30 27 25 23 22 20 19 17 16 14 13 11 10 8
19 16 17 17 14 15 12 16 14 17 18 17 14 15 16 14 12 17 16 33 31 31 25 26 33 41 41 36 34 32 30 28 26 25 23 21 20 18 16 15 13 11 10 10
18 20 20 19 13 10 13 15 14 13 14 12 3 6 13 12 14 19 25 26 34 38 31 30 37 40 28 31 32 31 30 28 28 26 24 22 20 18 17 15 13 12 10 9
18 16 18 21 19 16 14 12 11 9 10 8 4 3 7 10 11 21 28 30 33 31 33 40 40 33 28 31 33 32 29 28 28 25 24 21 20 18 17 15 14 13 11 10
16 16 17 18 18 17 12 9 9 9 8 7 2 7 9 9 11 18 26 30 29 30 35 38 37 35 33 31 31 30 29 28 26 27 23 21 20 18 17 15 14 13 12 11
Wind_Direction
258 272 280 271 214 229 226 240 244 252 258 260 264 268 251 205 190 190 189 180 170 165 160 157 156 157 159 162 165 166 167 168 164 155 150 148 147 147 144 144 144 147 148 146
261 260 261 263 267 265 251 230 244 252 260 266 277 285 270 265 202 202 196 187 180 168 164 164 162 161 160 164 165 165 165 163 158 152 149 148 147 145 144 146 150 152 154 152
255 260 262 254 249 256 261 257 244 252 266 269 270 257 247 258 217 206 198 188 183 173 170 166 165 162 163 164 162 162 161 158 157 153 150 151 149 148 149 152 155 156 159 161
266 277 249 260 265 270 286 257 259 258 256 269 276 280 266 230 217 208 196 187 181 175 170 166 162 161 161 160 160 160 159 160 157 155 152 151 149 149 152 157 161 163 167 169
246 252 258 258 258 243 257 262 267 276 268 259 259 284 257 246 224 205 193 182 178 176 170 164 163 161 159 158 160 160 160 159 159 156 153 153 151 151 156 161 164 169 171 175
242 249 251 264 268 349 294 257 7 350 343 261 266 248 269 293 201 192 177 173 173 171 167 164 164 162 159 159 161 161 161 159 157 155 153 153 152 156 159 163 166 170 172 180
242 254 262 269 343 301 240 302 357 355 346 347 338 347 10 357 170 177 168 168 168 169 169 167 163 163 162 161 162 159 157 154 153 153 153 153 153 155 159 165 168 175 179 185
240 245 254 8 289 297 25 356 359 358 355 344 330 320 332 293 196 169 162 163 168 169 169 165 166 165 162 162 157 157 153 153 153 153 155 156 154 158 164 168 176 184 195 200
234 221 101 81 43 40 4 352 351 353 352 349 336 324 327 293 210 178 169 167 171 172 167 169 170 170 164 160 158 156 154 153 155 158 159 157 161 164 169 178 187 199 204 219
280 264 245 146 298 292 319 331 332 337 342 344 337 325 312 271 226 190 179 175 176 174 169 171 173 173 169 160 160 158 157 157 160 160 158 161 167 173 180 189 201 202 215 224
261 270 283 290 284 330 340 316 315 321 326 327 333 328 314 284 242 212 189 186 185 178 176 175 173 172 166 166 164 161 160 162 162 161 164 167 171 178 193 191 207 212 219 226
259 277 298 299 309 321 313 305 311 312 312 313 311 314 317 297 253 220 199 192 193 185 181 178 174 170 167 171 169 165 164 164 165 164 170 173 175 169 181 156 202 210 184 130
276 282 281 282 282 291 291 290 290 304 306 299 293 309 304 291 271 231 207 202 197 189 186 180 177 170 172 172 172 171 168 166 165 167 174 177 180 180 174 183 196 204 210 215
276 287 283 281 283 284 285 290 290 287 289 285 284 281 285 279 268 239 219 205 200 190 188 183 180 174 174 172 171 172 171 168 168 172 175 178 184 187 183 173 174 180 198 174
272 271 272 276 274 273 275 277 274 273 281 282 284 285 276 249 243 231 227 209 198 193 190 185 181 175 174 173 170 170 166 170 172 172 174 179 182 186 191 189 196 180 163 186
291 287 281 277 284 286 282 282 285 283 278 278 286 284 277 258 237 228 213 211 198 195 190 185 178 173 171 171 169 167 167 170 169 169 168 173 177 182 185 188 195 195 199 201
300 288 288 284 280 274 275 279 277 279 277 269 265 278 275 260 232 229 217 209 208 199 188 183 176 171 170 170 165 165 166 167 165 163 167 174 178 182 186 188 187 190 188 173
316 301 292 285 284 287 288 285 277 267 268 270 275 273 267 234 235 212 221 203 202 193 189 186 180 171 169 168 166 164 162 164 165 162 166 171 176 179 180 181 181 182 174 163
295 290 294 292 287 285 292 284 284 269 257 257 261 255 249 228 222 206 208 202 188 192 192 183 182 172 170 168 165 160 161 162 160 159 165 167 169 172 173 172 175 182 181 178
301 289 303 300 296 298 294 291 288 285 279 269 263 265 230 217 211 203 197 202 197 198 189 181 174 175 170 168 161 157 158 156 157 159 162 167 169 166 167 163 173 173 176 175
293 317 308 314 309 300 302 297 292 284 277 271 278 277 222 211 206 200 195 197 197 194 189 178 172 174 165 162 159 156 154 158 156 158 164 166 161 164 163 166 171 173 174 173
288 300 301 293 300 304 302 301 295 298 293 279 276 276 211 182 189 198 204 200 186 191 177 171 177 174 165 160 156 154 157 157 157 161 164 161 162 161 161 167 169 171 172 171
295 288 293 283 279 293 299 293 280 280 280 273 262 240 211 201 193 178 186 185 184 175 174 178 180 174 166 159 154 154 159 157 158 159 159 158 160 160 163 168 171 170 170 172
292 287 280 293 291 285 287 311 312 317 313 325 296 239 202 189 188 195 201 186 184 177 178 186 178 167 163 155 152 153 154 154 154 154 153 154 157 159 162 165 166 169 172 172
299 298 291 292 277 278 295 312 323 322 332 335 283 253 213 195 196 186 193 170 170 170 173 174 167 166 158 153 152 152 153 154 154 151 154 156 159 161 162 164 167 167 173 178
302 300 301 299 296 294 298 303 309 320 324 319 306 219 194 180 167 174 176 174 170 166 157 160 162 163 162 158 157 155 153 153 152 153 154 158 159 161 162 163 166 168 175 183
305 302 300 300 297 297 288 286 310 314 311 308 273 135 147 163 170 162 165 162 163 161 161 163 163 164 165 160 154 151 152 154 154 153 155 158 159 161 163 165 168 173 182 187